When you browse on this site, cookies collect data to enhance your experience and personalize the content and advertising you see.
Visit our Privacy Policy to learn more. By continuing to use the site, you agree to this use of cookies and data.
EN

Hourly Weather Warburg

Today, 12 August, Wednesday

Time Temperature Precipitation Wind Pressure Humidity
00:00 +21°C° 0.7 mm 2 mps 743 mmHg 87%
01:00 +21°C° 0 mm 1 mps 743 mmHg 87%
02:00 +21°C° 0 mm 1 mps 743 mmHg 88%
03:00 +21°C° 0 mm 1 mps 743 mmHg 89%
04:00 +20°C° 0 mm 1 mps 742 mmHg 90%
05:00 +21°C° 0 mm 1 mps 742 mmHg 88%
06:00 +22°C° 0 mm 1 mps 743 mmHg 86%
07:00 +23°C° 0 mm 1 mps 743 mmHg 82%
08:00 +24°C° 0 mm 2 mps 743 mmHg 76%
09:00 +26°C° 0 mm 3 mps 743 mmHg 70%
10:00 +28°C° 0 mm 3 mps 743 mmHg 63%
11:00 +28°C° 0.6 mm 4 mps 743 mmHg 62%
12:00 +29°C° 0.6 mm 4 mps 742 mmHg 61%
13:00 +29°C° 0.6 mm 4 mps 742 mmHg 60%
14:00 +28°C° 0.5 mm 3 mps 742 mmHg 65%
15:00 +27°C° 0.5 mm 3 mps 742 mmHg 70%
16:00 +26°C° 0.5 mm 2 mps 742 mmHg 75%
17:00 +26°C° 0 mm 2 mps 741 mmHg 75%
18:00 +26°C° 0 mm 1 mps 741 mmHg 75%
19:00 +26°C° 0 mm 1 mps 741 mmHg 74%
20:00 +25°C° 0.2 mm 1 mps 741 mmHg 77%
21:00 +24°C° 0.2 mm 2 mps 741 mmHg 79%
22:00 +21°C° 0.2 mm 2 mps 741 mmHg 81%
23:00 +22°C° 0.2 mm 1 mps 741 mmHg 83%

Tomorrow, 13 August, Thursday

Time Temperature Precipitation Wind Pressure Humidity
00:00 +21°C° 0.2 mm 1 mps 741 mmHg 84%
01:00 +21°C° 0.2 mm 1 mps 741 mmHg 86%
02:00 +21°C° 0.2 mm 1 mps 741 mmHg 87%
03:00 +20°C° 0.2 mm 1 mps 740 mmHg 87%
04:00 +20°C° 0.2 mm 1 mps 740 mmHg 88%
05:00 +21°C° 0.5 mm 1 mps 740 mmHg 87%
06:00 +21°C° 0.5 mm 1 mps 740 mmHg 86%
07:00 +22°C° 0.5 mm 1 mps 740 mmHg 85%
08:00 +22°C° 0.5 mm 1 mps 740 mmHg 84%
09:00 +23°C° 0.5 mm 2 mps 740 mmHg 83%
10:00 +23°C° 0.5 mm 2 mps 740 mmHg 82%
11:00 +24°C° 0.2 mm 2 mps 740 mmHg 81%
12:00 +24°C° 0.2 mm 2 mps 740 mmHg 80%
13:00 +25°C° 0.2 mm 2 mps 740 mmHg 79%
14:00 +26°C° 0 mm 2 mps 740 mmHg 75%
15:00 +27°C° 0 mm 2 mps 740 mmHg 71%
16:00 +28°C° 0 mm 2 mps 740 mmHg 67%
17:00 +28°C° 0.1 mm 2 mps 740 mmHg 70%
18:00 +27°C° 0.1 mm 2 mps 740 mmHg 72%
19:00 +26°C° 0.1 mm 2 mps 739 mmHg 75%
20:00 +25°C° 0.3 mm 1 mps 740 mmHg 77%
21:00 +23°C° 0.3 mm 1 mps 740 mmHg 80%
22:00 +20°C° 0.3 mm 0 mps 740 mmHg 83%
23:00 +22°C° 0.1 mm 1 mps 740 mmHg 84%

Day after tomorrow, 14 August, Friday

Time Temperature Precipitation Wind Pressure Humidity
00:00 +21°C° 0.1 mm 1 mps 740 mmHg 86%
01:00 +21°C° 0.1 mm 1 mps 740 mmHg 87%
02:00 +20°C° 0.1 mm 1 mps 740 mmHg 88%
03:00 +18°C° 0.1 mm 0 mps 740 mmHg 89%
04:00 +18°C° 0.1 mm 0 mps 740 mmHg 90%
05:00 +18°C° 0 mm 0 mps 740 mmHg 88%
06:00 +19°C° 0 mm 0 mps 740 mmHg 85%
07:00 +20°C° 0 mm 0 mps 740 mmHg 83%
08:00 +22°C° 0 mm 0 mps 740 mmHg 76%
09:00 +25°C° 0 mm 1 mps 741 mmHg 69%
10:00 +27°C° 0 mm 1 mps 741 mmHg 63%
11:00 +27°C° 0.2 mm 1 mps 740 mmHg 62%
12:00 +27°C° 0.2 mm 1 mps 740 mmHg 61%
13:00 +28°C° 0.2 mm 1 mps 740 mmHg 60%
14:00 +28°C° 0.3 mm 1 mps 740 mmHg 61%
15:00 +28°C° 0.3 mm 2 mps 740 mmHg 62%
16:00 +28°C° 0.3 mm 2 mps 740 mmHg 62%
17:00 +27°C° 0.4 mm 1 mps 740 mmHg 68%
18:00 +26°C° 0.4 mm 1 mps 739 mmHg 73%
19:00 +25°C° 0.4 mm 1 mps 739 mmHg 78%
20:00 +23°C° 0.2 mm 1 mps 740 mmHg 81%
21:00 +22°C° 0.2 mm 1 mps 740 mmHg 84%
22:00 +21°C° 0.2 mm 1 mps 740 mmHg 87%
23:00 +20°C° 0 mm 1 mps 740 mmHg 88%

15 August, Saturday

Time Temperature Precipitation Wind Pressure Humidity
00:00 +18°C° 0 mm 0 mps 740 mmHg 89%
01:00 +18°C° 0 mm 0 mps 740 mmHg 90%
02:00 +19°C° 0 mm 1 mps 740 mmHg 91%
03:00 +19°C° 0 mm 1 mps 740 mmHg 92%
04:00 +19°C° 0 mm 1 mps 740 mmHg 93%
05:00 +20°C° 0 mm 1 mps 740 mmHg 92%
06:00 +20°C° 0 mm 1 mps 740 mmHg 91%
07:00 +21°C° 0 mm 1 mps 740 mmHg 90%
08:00 +22°C° 0 mm 1 mps 741 mmHg 85%
09:00 +23°C° 0 mm 1 mps 741 mmHg 81%
10:00 +24°C° 0 mm 1 mps 741 mmHg 77%
11:00 +25°C° 0 mm 1 mps 741 mmHg 73%
12:00 +25°C° 0 mm 1 mps 741 mmHg 70%
13:00 +26°C° 0 mm 1 mps 741 mmHg 66%
14:00 +26°C° 0 mm 1 mps 741 mmHg 63%
15:00 +27°C° 0 mm 1 mps 741 mmHg 61%
16:00 +27°C° 0 mm 1 mps 741 mmHg 58%
17:00 +26°C° 0.3 mm 1 mps 741 mmHg 64%
18:00 +25°C° 0.3 mm 1 mps 740 mmHg 70%
19:00 +23°C° 0.3 mm 1 mps 740 mmHg 75%
20:00 +23°C° 0.3 mm 1 mps 740 mmHg 77%
21:00 +22°C° 0.3 mm 1 mps 740 mmHg 79%
22:00 +21°C° 0.3 mm 1 mps 741 mmHg 81%
23:00 +21°C° 0.1 mm 1 mps 741 mmHg 81%

16 August, Sunday

Time Temperature Precipitation Wind Pressure Humidity
00:00 +19°C° 0.1 mm 0 mps 740 mmHg 82%
01:00 +19°C° 0.1 mm 0 mps 740 mmHg 82%
02:00 +19°C° 0 mm 0 mps 740 mmHg 83%
03:00 +18°C° 0 mm 0 mps 740 mmHg 83%
04:00 +18°C° 0 mm 0 mps 740 mmHg 84%
05:00 +18°C° 0 mm 0 mps 740 mmHg 83%
06:00 +19°C° 0 mm 0 mps 740 mmHg 82%
07:00 +19°C° 0 mm 0 mps 740 mmHg 81%
08:00 +23°C° 0.1 mm 1 mps 740 mmHg 76%
09:00 +24°C° 0.1 mm 1 mps 740 mmHg 71%
10:00 +26°C° 0.1 mm 2 mps 740 mmHg 66%
11:00 +26°C° 1.1 mm 2 mps 740 mmHg 64%
12:00 +27°C° 1.1 mm 2 mps 740 mmHg 63%
13:00 +28°C° 1.1 mm 2 mps 739 mmHg 61%
14:00 +27°C° 1.3 mm 2 mps 739 mmHg 62%
15:00 +27°C° 1.3 mm 2 mps 739 mmHg 62%
16:00 +27°C° 1.3 mm 2 mps 739 mmHg 63%
17:00 +26°C° 0.6 mm 2 mps 738 mmHg 68%
18:00 +25°C° 0.6 mm 2 mps 738 mmHg 73%
19:00 +24°C° 0.6 mm 2 mps 738 mmHg 78%
20:00 +23°C° 0 mm 2 mps 738 mmHg 80%
21:00 +22°C° 0 mm 1 mps 738 mmHg 81%
22:00 +21°C° 0 mm 1 mps 738 mmHg 83%
23:00 +20°C° 0 mm 1 mps 738 mmHg 83%

17 August, Monday

Time Temperature Precipitation Wind Pressure Humidity
00:00 +20°C° 0 mm 1 mps 737 mmHg 84%
01:00 +20°C° 0 mm 1 mps 737 mmHg 84%
02:00 +19°C° 0 mm 1 mps 737 mmHg 85%
03:00 +19°C° 0 mm 1 mps 737 mmHg 86%
04:00 +19°C° 0 mm 1 mps 737 mmHg 87%
05:00 +20°C° 0.1 mm 1 mps 737 mmHg 87%
06:00 +19°C° 0.1 mm 2 mps 737 mmHg 86%
07:00 +20°C° 0.1 mm 2 mps 737 mmHg 86%
08:00 +22°C° 0.3 mm 1 mps 737 mmHg 84%
09:00 +22°C° 0.3 mm 1 mps 737 mmHg 83%
10:00 +23°C° 0.3 mm 1 mps 737 mmHg 82%
11:00 +24°C° 0.4 mm 2 mps 737 mmHg 77%
12:00 +25°C° 0.4 mm 2 mps 737 mmHg 71%
13:00 +27°C° 0.4 mm 3 mps 737 mmHg 66%
14:00 +26°C° 1.3 mm 3 mps 737 mmHg 70%
15:00 +25°C° 1.3 mm 3 mps 737 mmHg 73%
16:00 +25°C° 1.3 mm 3 mps 737 mmHg 77%
17:00 +24°C° 1.1 mm 2 mps 737 mmHg 80%
18:00 +23°C° 1.1 mm 2 mps 737 mmHg 83%
19:00 +21°C° 1.1 mm 2 mps 737 mmHg 86%
20:00 +20°C° 0 mm 2 mps 737 mmHg 87%
21:00 +20°C° 0 mm 1 mps 737 mmHg 88%
22:00 +19°C° 0 mm 1 mps 737 mmHg 89%
23:00 +19°C° 0 mm 1 mps 737 mmHg 89%
Show more